Temp
-4 -4 -4 -5 -5 -5 -6 -8 -9 -9 -7 -8 -8 -7 -7 -6 -8 -7 -6 -7 -7 -7 -8 -7 -7 -7 -8 -8 -8 -8 -8 -8 -8 -8 -8 -7 -7 -7 -7 -7 -7 -7 -7 -7
-4 -4 -5 -5 -5 -5 -6 -8 -8 -9 -9 -8 -8 -8 -8 -7 -7 -7 -7 -6 -7 -8 -8 -8 -7 -7 -7 -8 -8 -8 -8 -8 -8 -8 -8 -7 -7 -7 -8 -7 -7 -7 -7 -7
-4 -5 -5 -5 -5 -5 -6 -7 -9 -10 -11 -11 -9 -8 -8 -8 -7 -7 -7 -7 -7 -7 -8 -8 -8 -7 -7 -7 -7 -8 -8 -8 -8 -8 -8 -8 -7 -7 -8 -8 -8 -8 -8 -7
-5 -6 -6 -6 -6 -7 -7 -9 -10 -10 -11 -11 -10 -10 -10 -10 -8 -8 -8 -8 -7 -7 -7 -8 -7 -7 -8 -7 -7 -8 -8 -8 -8 -8 -8 -8 -8 -8 -8 -8 -8 -8 -8 -8
-6 -6 -7 -7 -7 -8 -8 -10 -12 -12 -12 -11 -11 -11 -10 -10 -9 -8 -8 -9 -8 -8 -8 -8 -7 -8 -8 -8 -8 -8 -8 -8 -8 -7 -8 -8 -8 -8 -8 -8 -8 -7 -7 -7
-7 -8 -8 -8 -9 -10 -10 -11 -13 -13 -12 -11 -11 -10 -10 -10 -10 -9 -9 -9 -8 -8 -8 -8 -8 -7 -8 -8 -8 -8 -8 -8 -8 -8 -8 -8 -7 -8 -8 -8 -7 -7 -6 -7
-8 -9 -10 -10 -10 -11 -12 -13 -12 -12 -11 -11 -11 -11 -10 -10 -10 -10 -9 -9 -9 -8 -8 -8 -8 -8 -7 -8 -8 -8 -8 -8 -8 -8 -8 -8 -7 -8 -8 -8 -8 -6 -6 -7
-9 -11 -11 -11 -11 -13 -13 -13 -12 -13 -12 -12 -12 -11 -11 -10 -10 -10 -9 -9 -9 -8 -8 -8 -8 -8 -8 -7 -7 -8 -7 -8 -8 -8 -8 -8 -8 -8 -8 -8 -8 -8 -7 -7
-10 -11 -12 -12 -12 -13 -13 -12 -13 -13 -12 -12 -12 -12 -11 -11 -10 -10 -9 -9 -9 -8 -8 -8 -8 -8 -7 -7 -7 -7 -8 -8 -8 -8 -7 -7 -8 -8 -8 -8 -9 -8 -8 -8
-10 -11 -13 -12 -12 -12 -13 -13 -12 -13 -13 -12 -11 -11 -11 -11 -11 -10 -10 -9 -9 -9 -7 -8 -8 -7 -7 -7 -7 -7 -8 -8 -8 -7 -8 -7 -8 -9 -8 -8 -9 -9 -8 -8
-10 -11 -12 -13 -13 -12 -13 -13 -13 -12 -12 -12 -11 -11 -11 -11 -11 -10 -10 -10 -9 -9 -8 -8 -7 -7 -7 -7 -7 -8 -8 -7 -7 -8 -8 -8 -8 -9 -9 -8 -9 -9 -9 -9
-11 -11 -12 -13 -13 -13 -13 -13 -13 -12 -12 -12 -12 -11 -11 -11 -10 -10 -10 -9 -9 -9 -8 -8 -7 -7 -7 -8 -8 -8 -8 -8 -8 -10 -8 -9 -8 -9 -9 -9 -9 -9 -9 -9
-12 -13 -12 -13 -13 -12 -13 -13 -13 -13 -13 -12 -12 -11 -12 -11 -11 -10 -10 -10 -9 -8 -8 -8 -8 -8 -8 -8 -8 -8 -8 -8 -8 -9 -9 -10 -10 -10 -9 -9 -9 -9 -9 -10
-11 -12 -13 -13 -13 -13 -13 -13 -13 -13 -13 -12 -11 -12 -12 -12 -11 -11 -10 -9 -9 -8 -8 -8 -8 -8 -8 -8 -8 -8 -8 -8 -8 -9 -9 -9 -10 -10 -10 -10 -10 -9 -10 -10
-12 -12 -13 -14 -13 -13 -13 -13 -13 -13 -13 -13 -12 -12 -12 -11 -11 -12 -10 -10 -10 -9 -9 -8 -8 -8 -8 -9 -8 -9 -9 -8 -8 -9 -9 -9 -10 -11 -10 -10 -10 -10 -10 -10
-12 -12 -13 -13 -14 -14 -13 -13 -13 -13 -12 -12 -12 -12 -11 -11 -12 -12 -11 -10 -10 -10 -10 -9 -9 -8 -9 -9 -9 -8 -9 -8 -9 -9 -8 -8 -9 -9 -9 -10 -10 -10 -10 -10
-13 -13 -13 -13 -13 -14 -14 -14 -14 -13 -12 -12 -12 -12 -11 -11 -12 -11 -12 -11 -11 -11 -12 -8 -8 -8 -9 -8 -9 -9 -9 -9 -9 -10 -9 -9 -9 -9 -9 -10 -10 -10 -10 -10
-13 -13 -13 -13 -13 -14 -14 -13 -13 -12 -13 -12 -12 -12 -11 -12 -12 -12 -12 -11 -10 -10 -10 -11 -10 -10 -10 -9 -10 -10 -9 -9 -9 -9 -9 -8 -9 -9 -11 -10 -9 -10 -10 -10
-13 -13 -13 -13 -13 -14 -14 -13 -14 -13 -12 -12 -12 -12 -12 -12 -12 -11 -12 -12 -11 -10 -10 -10 -10 -10 -10 -10 -9 -10 -10 -10 -9 -9 -8 -9 -8 -9 -10 -9 -10 -10 -10 -10
-13 -13 -13 -13 -14 -15 -14 -14 -13 -13 -12 -12 -12 -12 -12 -12 -12 -12 -12 -11 -11 -11 -11 -10 -10 -10 -10 -10 -10 -9 -9 -9 -9 -9 -9 -9 -10 -10 -11 -10 -10 -10 -10 -10
-14 -14 -14 -14 -14 -15 -14 -14 -13 -13 -12 -12 -12 -12 -12 -12 -12 -12 -12 -12 -11 -11 -11 -11 -10 -10 -10 -10 -10 -9 -9 -9 -8 -8 -8 -8 -9 -9 -10 -11 -10 -11 -10 -10
-14 -14 -15 -14 -14 -15 -14 -14 -14 -13 -13 -13 -13 -13 -13 -13 -12 -12 -11 -11 -11 -11 -11 -11 -11 -11 -10 -10 -10 -9 -9 -8 -8 -8 -8 -8 -8 -8 -9 -10 -9 -10 -10 -11
-14 -14 -14 -14 -14 -14 -14 -14 -14 -14 -15 -14 -14 -14 -13 -12 -12 -11 -11 -11 -11 -11 -11 -11 -11 -11 -10 -9 -9 -8 -7 -8 -7 -7 -8 -9 -9 -9 -9 -9 -10 -10 -11 -10
-14 -14 -14 -14 -14 -14 -14 -14 -14 -14 -14 -14 -14 -13 -13 -12 -12 -12 -11 -11 -11 -11 -11 -11 -10 -10 -10 -9 -9 -9 -9 -8 -8 -9 -9 -9 -9 -10 -9 -10 -11 -10 -10 -10
-15 -15 -14 -14 -14 -14 -14 -14 -14 -14 -14 -14 -14 -13 -13 -12 -12 -12 -12 -12 -11 -11 -11 -11 -11 -11 -11 -11 -11 -10 -11 -10 -10 -10 -10 -11 -11 -10 -11 -10 -10 -10 -10 -10
-15 -15 -15 -15 -14 -14 -14 -14 -14 -14 -14 -14 -13 -13 -13 -12 -12 -12 -12 -11 -11 -11 -11 -11 -11 -12 -12 -12 -12 -12 -12 -11 -12 -12 -12 -11 -11 -10 -10 -10 -10 -9 -9 -9
Height
5873 5870 5869 5868 5866 5867 5866 5866 5867 5869 5870 5873 5871 5875 5875 5876 5882 5884 5888 5890 5893 5896 5897 5897 5898 5899 5897 5897 5897 5896 5894 5893 5892 5890 5889 5888 5885 5886 5885 5883 5883 5881 5881 5880
5865 5864 5862 5858 5858 5856 5854 5854 5855 5857 5858 5863 5863 5864 5865 5866 5875 5874 5881 5884 5887 5889 5892 5893 5894 5895 5895 5895 5894 5894 5893 5891 5890 5889 5888 5886 5884 5882 5881 5880 5880 5878 5877 5877
5857 5856 5851 5850 5847 5846 5845 5842 5845 5847 5851 5851 5853 5853 5858 5859 5861 5866 5868 5877 5880 5884 5887 5889 5889 5891 5892 5892 5892 5891 5890 5889 5887 5887 5886 5884 5882 5879 5878 5877 5876 5875 5873 5873
5849 5846 5843 5840 5839 5837 5834 5833 5832 5834 5840 5841 5850 5844 5850 5851 5852 5857 5862 5868 5874 5879 5881 5883 5885 5887 5888 5888 5888 5888 5889 5888 5886 5885 5884 5882 5879 5878 5877 5874 5872 5870 5867 5866
5840 5838 5834 5832 5830 5825 5824 5822 5824 5827 5829 5833 5838 5839 5844 5845 5846 5851 5858 5864 5868 5872 5876 5878 5881 5883 5882 5883 5885 5885 5886 5886 5884 5883 5882 5879 5877 5875 5873 5871 5867 5864 5860 5858
5833 5828 5825 5822 5820 5817 5815 5813 5816 5818 5822 5824 5830 5835 5838 5842 5843 5846 5853 5859 5862 5867 5869 5873 5875 5878 5879 5879 5880 5881 5882 5882 5881 5881 5880 5878 5875 5872 5870 5867 5861 5857 5854 5851
5827 5821 5818 5816 5813 5810 5810 5811 5814 5815 5817 5819 5825 5823 5830 5834 5836 5839 5843 5848 5851 5855 5861 5865 5869 5872 5875 5874 5875 5877 5879 5879 5878 5877 5876 5875 5873 5871 5868 5864 5858 5852 5848 5847
5821 5818 5813 5811 5810 5809 5812 5811 5813 5811 5810 5806 5807 5817 5824 5826 5832 5832 5837 5839 5842 5846 5850 5855 5861 5864 5868 5870 5870 5872 5874 5875 5875 5874 5874 5871 5870 5868 5865 5862 5858 5852 5846 5844
5813 5814 5810 5808 5807 5809 5807 5805 5808 5806 5808 5807 5806 5811 5819 5820 5825 5826 5828 5831 5834 5837 5842 5847 5853 5856 5859 5861 5863 5866 5868 5870 5870 5872 5871 5868 5866 5865 5863 5861 5858 5855 5852 5848
5806 5807 5807 5805 5804 5804 5805 5804 5806 5803 5803 5803 5802 5806 5812 5815 5818 5817 5822 5824 5825 5828 5833 5836 5841 5846 5850 5851 5853 5859 5863 5866 5866 5867 5867 5865 5863 5862 5861 5859 5858 5855 5852 5850
5798 5800 5803 5802 5801 5804 5801 5799 5799 5803 5802 5796 5804 5805 5808 5809 5810 5813 5815 5817 5819 5821 5824 5828 5831 5834 5838 5840 5844 5851 5856 5859 5860 5862 5862 5862 5860 5860 5859 5856 5855 5852 5850 5848
5791 5792 5793 5797 5797 5795 5795 5795 5796 5798 5799 5796 5795 5798 5802 5800 5803 5806 5809 5812 5813 5814 5816 5819 5823 5826 5830 5833 5839 5845 5849 5851 5852 5854 5856 5856 5857 5856 5856 5854 5852 5849 5847 5846
5785 5787 5787 5792 5793 5790 5788 5789 5790 5789 5790 5790 5790 5795 5795 5796 5797 5799 5804 5807 5808 5809 5811 5813 5817 5821 5825 5829 5834 5839 5843 5845 5846 5847 5847 5848 5850 5851 5852 5852 5850 5848 5845 5844
5778 5779 5780 5784 5786 5783 5783 5783 5783 5783 5784 5786 5787 5789 5791 5787 5792 5795 5798 5801 5803 5803 5805 5808 5812 5816 5820 5823 5827 5831 5834 5836 5840 5841 5841 5839 5840 5840 5841 5844 5845 5845 5843 5841
5771 5770 5772 5772 5776 5777 5777 5778 5778 5778 5777 5776 5778 5779 5783 5783 5785 5785 5792 5795 5796 5798 5798 5801 5805 5811 5816 5818 5813 5821 5825 5828 5828 5832 5831 5825 5831 5833 5836 5836 5835 5839 5839 5838
5764 5764 5763 5763 5768 5769 5768 5770 5770 5770 5770 5769 5770 5773 5775 5778 5779 5781 5783 5789 5791 5786 5785 5794 5782 5791 5800 5807 5812 5815 5814 5820 5821 5820 5821 5819 5823 5827 5829 5831 5829 5829 5833 5834
5758 5757 5756 5756 5761 5761 5760 5762 5762 5761 5759 5760 5762 5761 5767 5770 5773 5775 5778 5781 5783 5783 5778 5783 5785 5788 5778 5786 5799 5804 5806 5809 5812 5810 5815 5811 5815 5821 5822 5822 5823 5822 5825 5829
5754 5751 5750 5751 5753 5753 5756 5753 5753 5752 5751 5751 5753 5754 5759 5763 5766 5769 5772 5776 5778 5780 5780 5781 5783 5787 5788 5787 5788 5795 5791 5793 5804 5805 5806 5809 5812 5811 5812 5814 5815 5815 5816 5820
5746 5745 5744 5744 5746 5749 5749 5746 5746 5744 5744 5745 5746 5748 5754 5757 5760 5762 5766 5770 5774 5775 5776 5776 5777 5781 5782 5785 5786 5783 5788 5789 5792 5794 5793 5792 5795 5799 5803 5806 5809 5809 5808 5810
5739 5737 5737 5738 5739 5743 5741 5741 5739 5738 5737 5736 5739 5742 5747 5751 5752 5756 5761 5764 5767 5770 5771 5771 5772 5775 5777 5778 5779 5780 5781 5783 5783 5782 5781 5778 5778 5784 5790 5794 5799 5798 5798 5803
5732 5730 5730 5731 5733 5736 5735 5735 5734 5734 5733 5732 5727 5736 5739 5746 5747 5751 5755 5757 5759 5762 5765 5767 5767 5767 5767 5769 5770 5771 5770 5770 5768 5766 5762 5763 5748 5750 5763 5776 5786 5787 5790 5795
5728 5726 5725 5726 5727 5729 5729 5731 5732 5729 5727 5728 5730 5736 5739 5742 5745 5746 5748 5750 5752 5754 5756 5757 5757 5759 5761 5762 5763 5763 5761 5761 5758 5754 5749 5754 5732 5737 5743 5760 5767 5777 5784 5785
5722 5721 5721 5722 5722 5722 5725 5726 5727 5728 5726 5730 5733 5735 5736 5737 5737 5738 5740 5742 5743 5744 5747 5747 5748 5749 5751 5751 5751 5751 5749 5748 5743 5735 5730 5736 5737 5742 5747 5756 5764 5771 5774 5776
5715 5715 5715 5717 5716 5718 5720 5721 5723 5724 5726 5727 5727 5727 5728 5729 5730 5731 5732 5734 5735 5736 5737 5738 5739 5739 5740 5740 5739 5739 5739 5734 5729 5727 5725 5729 5735 5741 5747 5753 5759 5763 5766 5768
5711 5711 5710 5711 5712 5714 5716 5718 5719 5720 5722 5721 5721 5721 5722 5723 5724 5725 5726 5726 5726 5727 5729 5729 5731 5730 5731 5732 5733 5733 5732 5734 5732 5729 5730 5732 5737 5742 5746 5750 5754 5756 5757 5755
5707 5706 5706 5705 5706 5709 5711 5713 5714 5716 5717 5716 5717 5717 5716 5717 5718 5717 5718 5716 5719 5720 5721 5720 5720 5722 5724 5725 5728 5727 5726 5728 5727 5729 5734 5736 5739 5741 5742 5743 5744 5745 5744 5743
Wind_Speed
34 34 35 33 37 34 36 39 42 41 40 38 41 40 44 47 43 42 35 31 26 16 22 20 19 14 8 7 9 10 11 17 16 17 18 16 19 15 12 12 12 10 8 5
36 35 33 36 36 39 41 43 47 46 48 40 44 42 44 47 39 46 38 34 30 25 25 23 22 18 13 13 10 10 13 13 17 17 19 15 17 17 15 13 14 13 13 13
39 35 39 35 37 40 43 47 46 44 36 36 42 46 41 43 44 37 38 35 31 27 30 24 26 22 18 14 14 18 18 16 16 18 21 18 17 16 17 16 16 15 19 19
39 35 36 36 37 38 43 40 43 46 38 39 28 38 32 29 38 37 34 36 31 32 28 30 31 25 19 18 21 26 25 22 15 14 18 20 20 18 17 18 22 22 25 23
34 34 32 32 34 39 42 37 28 32 35 37 34 37 28 25 33 32 32 29 32 30 30 29 24 21 22 23 25 28 24 16 19 16 17 21 21 19 21 22 23 23 22 23
32 30 29 31 31 31 31 29 24 29 28 35 32 33 29 24 21 18 23 26 32 31 32 33 33 29 28 26 26 26 23 23 23 19 18 21 19 17 22 22 22 22 19 14
25 22 24 21 22 19 15 12 18 22 25 30 25 27 30 23 16 17 29 28 36 40 38 39 36 35 29 29 29 26 22 24 26 22 20 21 18 17 20 19 19 23 14 12
20 11 17 13 11 5 14 13 18 23 21 28 22 33 20 18 19 16 26 33 40 44 43 41 41 36 32 28 31 30 26 25 25 24 21 20 16 16 19 14 13 17 11 10
20 10 10 9 8 8 14 22 14 21 21 23 21 14 17 21 16 20 24 30 34 36 48 49 44 40 37 35 37 33 27 26 28 24 21 21 15 15 17 12 10 7 6 5
22 14 9 8 12 17 18 16 14 13 16 22 30 27 20 19 21 26 26 28 34 36 42 42 45 39 35 34 35 33 30 28 26 22 23 22 16 16 15 11 11 6 4 1
27 20 11 9 8 11 17 18 18 19 27 18 22 24 17 23 25 27 25 27 27 32 38 34 33 35 30 29 30 32 32 25 22 21 24 23 17 18 14 8 8 9 9 6
32 25 23 14 19 19 16 17 21 21 22 19 22 25 17 27 23 31 24 22 26 27 24 22 23 26 27 29 33 32 29 25 27 18 19 18 19 21 18 14 11 6 5 6
32 27 27 15 16 20 15 15 19 18 19 25 28 21 15 14 15 25 28 24 26 24 21 22 28 29 30 33 34 31 28 26 25 20 22 22 19 22 18 19 18 16 13 12
29 31 30 24 25 22 22 21 18 24 19 22 24 22 16 25 15 18 24 28 22 22 25 25 26 30 33 33 32 30 32 29 28 29 29 29 28 26 22 20 22 20 18 17
29 29 30 32 26 24 21 21 24 18 18 23 20 22 24 16 16 19 24 26 19 24 24 29 31 33 34 36 38 32 34 34 31 33 35 43 33 30 27 25 21 24 24 23
25 24 24 26 24 25 27 23 26 25 24 23 21 22 19 22 20 18 20 19 21 25 23 36 36 49 43 41 43 44 40 42 44 42 47 46 32 21 28 29 25 24 27 25
25 24 23 24 19 23 25 21 24 23 28 24 24 26 22 25 27 23 22 21 24 24 23 47 48 50 27 45 42 44 47 48 41 43 47 35 33 33 31 33 32 28 28 27
21 24 26 24 20 23 20 23 21 23 27 26 20 22 26 25 29 28 21 24 28 28 32 27 35 43 34 33 30 43 26 25 33 31 29 35 43 38 39 37 35 32 27 32
23 25 27 27 23 16 20 18 20 22 22 20 16 24 25 26 27 26 18 22 29 26 27 33 32 28 28 30 35 33 32 32 33 40 36 33 38 43 34 40 39 37 30 36
22 25 26 24 20 13 19 19 20 21 19 20 21 31 31 33 20 15 16 21 21 24 27 27 34 34 34 35 36 36 35 37 32 35 41 47 53 52 50 44 47 40 33 39
20 22 20 20 23 19 19 19 17 17 5 18 15 27 35 24 14 14 16 14 18 24 27 31 36 35 36 36 37 33 38 36 38 45 50 53 70 72 69 58 55 40 39 42
18 17 15 18 21 24 20 19 19 9 12 3 5 7 9 12 16 19 19 21 21 22 23 20 23 37 40 39 39 41 40 42 46 48 50 39 36 43 55 54 39 38 41 41
19 17 16 19 21 21 19 21 16 10 5 5 9 17 22 24 26 26 23 23 25 25 24 24 27 26 32 34 34 37 40 40 41 40 37 41 36 36 35 34 37 41 41 41
21 19 19 17 20 21 19 20 18 17 15 17 19 23 24 25 27 27 24 26 28 28 28 28 28 30 30 30 35 30 28 26 27 18 28 33 37 28 31 35 38 40 37 38
19 17 24 21 24 18 19 20 20 19 19 20 20 20 21 25 26 27 28 31 31 32 32 32 30 32 28 25 23 21 17 24 13 16 13 12 18 28 35 35 35 36 37 39
17 21 20 19 21 14 16 19 17 14 13 16 16 19 20 20 23 26 26 31 27 23 24 25 19 19 22 22 22 17 10 14 10 8 11 16 22 26 29 32 34 35 35 34
Wind_Direction
296 293 291 283 280 277 274 267 263 256 260 245 252 249 251 250 241 248 236 223 231 232 233 238 244 241 243 263 282 298 310 321 333 348 347 344 338 336 320 321 325 328 325 335
298 299 288 282 282 276 269 264 264 264 261 252 251 247 252 254 250 249 239 230 225 233 235 233 238 244 242 252 263 274 289 307 318 324 338 335 332 329 317 314 312 303 302 299
302 299 291 285 284 282 278 269 264 263 258 261 256 253 252 259 255 251 245 235 228 227 237 238 241 251 248 250 265 261 271 280 299 319 329 330 324 319 322 310 311 298 299 291
300 293 290 289 291 287 279 273 269 258 255 257 256 259 249 255 253 249 241 238 233 230 240 233 245 247 253 258 267 271 273 268 291 309 320 318 315 316 323 306 310 310 305 290
298 293 290 290 289 282 280 271 255 260 253 253 247 257 259 258 259 247 233 233 238 238 238 239 237 226 240 252 267 273 291 306 299 301 311 310 312 318 318 317 315 314 302 282
299 295 290 292 287 283 280 259 253 247 243 243 246 248 250 256 259 245 233 229 229 235 239 244 246 246 240 251 266 279 292 290 291 296 301 302 311 314 320 319 321 319 313 299
302 284 288 300 300 290 267 267 262 257 249 248 241 240 248 242 243 246 221 213 219 227 237 240 246 249 242 247 260 268 274 275 279 288 294 296 306 313 319 318 328 331 290 261
302 300 316 312 299 262 270 252 245 248 249 234 218 249 241 263 244 257 235 229 230 229 231 238 247 249 252 249 263 257 260 264 272 279 289 290 297 310 313 311 339 1 336 313
297 290 312 302 281 275 283 297 240 256 247 260 261 275 246 240 236 238 231 243 245 243 244 247 248 252 252 257 262 253 249 260 264 272 286 283 288 297 305 298 324 3 27 80
290 278 301 298 277 274 281 278 285 274 264 249 263 250 248 241 221 234 234 242 250 257 252 251 252 255 253 249 240 234 245 255 259 268 284 279 279 284 289 285 279 306 300 329
288 277 259 315 278 250 279 288 275 258 267 277 260 260 284 253 234 231 236 251 256 259 262 260 257 256 252 219 215 227 237 248 259 279 282 284 274 274 267 280 283 278 275 290
282 281 272 250 276 282 265 264 260 257 282 275 268 262 264 249 260 230 236 247 253 257 254 252 243 227 217 215 221 233 244 235 246 257 272 280 280 269 265 265 267 261 251 257
282 271 272 284 272 285 251 285 272 266 272 261 257 266 269 303 242 233 238 245 248 234 221 223 221 207 209 225 236 242 230 238 254 250 252 245 258 265 261 265 262 267 269 278
284 275 267 254 235 254 280 270 272 268 278 263 267 267 261 267 242 219 224 232 230 218 216 207 204 206 213 223 232 230 240 245 251 244 250 246 239 237 234 251 261 269 274 273
287 283 267 261 257 256 256 257 266 262 285 270 259 249 237 220 222 216 224 224 230 217 206 198 207 208 213 216 219 224 240 251 255 251 248 234 235 234 240 236 244 264 267 278
282 285 280 270 264 266 262 258 259 258 260 277 258 250 228 223 227 235 202 230 234 232 224 200 215 196 201 208 224 239 236 235 242 247 255 248 242 234 234 239 242 248 265 275
279 282 281 280 269 262 268 270 260 263 269 263 260 257 227 211 216 217 229 233 234 244 257 205 215 213 230 208 215 227 233 236 238 247 261 274 248 248 238 236 242 245 259 272
268 271 274 277 266 261 269 261 267 263 268 269 252 234 204 221 219 224 230 233 236 241 250 259 249 251 257 245 257 256 256 242 255 249 263 265 256 250 238 235 241 244 251 265
267 268 267 269 266 257 275 261 263 269 267 262 231 212 212 217 220 223 223 238 244 238 249 251 258 264 266 266 265 273 274 284 287 280 281 285 282 272 251 241 240 246 246 258
276 277 270 256 255 244 253 262 265 277 274 241 223 215 222 225 202 210 226 241 238 237 239 251 256 254 256 259 263 269 276 272 279 282 277 273 268 257 252 232 239 237 243 256
279 274 267 247 241 247 247 251 260 279 222 220 207 193 217 206 194 204 225 240 249 249 245 245 252 253 254 259 265 269 276 279 275 279 273 269 271 259 247 238 229 235 239 250
274 263 254 246 246 239 240 238 255 263 147 78 127 227 240 239 234 233 233 248 248 244 250 267 275 243 243 253 261 260 263 269 272 270 270 263 210 202 216 222 213 226 240 250
271 258 255 243 240 244 230 236 246 254 271 252 244 235 228 231 237 240 245 247 250 254 246 245 250 244 242 248 254 261 265 268 279 279 246 213 203 191 192 203 219 230 241 252
264 264 251 244 246 245 236 234 239 252 257 267 258 246 248 248 251 253 253 259 261 258 253 244 241 247 253 257 259 263 265 288 279 251 187 183 188 191 205 216 227 238 250 260
261 278 246 262 250 243 241 241 246 254 260 265 259 259 262 258 260 261 266 265 264 264 259 258 250 254 258 253 261 256 246 234 237 192 180 183 201 214 220 229 241 252 258 266
270 274 254 278 248 247 237 239 246 252 254 256 257 260 265 263 267 268 275 266 257 255 249 246 242 245 242 251 239 245 250 271 264 225 232 223 232 240 242 247 253 259 264 267